Starlink 3548

operational
NORAD ID: 51864 Int'l Des: 2022-022 Owner: SPXS Country: US Constellation: starlink
LEOCIRCULAR

Starlink 3548について

説明を読み込み中...

リアルタイム位置

3D地球を読み込み中...

次回通過

高度履歴

Altitude vs Time

uPlot chart will show altitude changes over time

軌道要素

1 51864U 22022N 25304.80690516 -.00001003 00000-0 -44904-4 0 9992
2 51864 53.2174 227.6191 0001703 83.8366 276.2820 15.08833102203701
Epoch: Oct 31, 2025 • Age: 16 hours

現在のステータス

高度 539.6 km
速度 7.59 km/s
衛星直下点 8.72°N, 20.52°E
打ち上げ日 Mar 3, 2022
運用期間 3.6 years
タイプ internet

技術仕様

分類 Payload
質量 297.00 kg
乾燥質量 275.00 kg
総質量 297.00 kg
長さ 0.20 m
直径 2.80 m
スパン 9.00 m
形状 Box + pan
製造者 SPXS
バスタイプ Starlink
フェーズステータス In Orbit
所有者/国 SPXS/US

大規模コンステレーション

Loading constellations...